Time,TemperatureF,DewpointF,PressureIn,WindDirection,WindDirectionDegrees,WindSpeedMPH,WindSpeedGustMPH,Humidity,HourlyPrecipIn,Conditions,Clouds,dailyrainin,SoftwareType,DateUTC
2013-01-24 01:02:00,12.0,6.0,30.08,ESE,114,2.0,5.0,76,0.00,,,0.00,,2013-01-24 08:02:00,
2013-01-24 01:12:00,12.0,6.0,30.08,ESE,114,2.0,5.0,76,0.00,,,0.00,,2013-01-24 08:12:00,
2013-01-24 01:23:00,11.0,5.0,30.07,ESE,111,2.0,4.0,77,0.00,,,0.00,,2013-01-24 08:23:00,
2013-01-24 01:33:00,13.0,7.0,30.06,SSE,148,8.0,16.0,78,0.00,,,0.00,,2013-01-24 08:33:00,
2013-01-24 01:42:00,13.0,7.0,30.06,SSE,148,8.0,16.0,78,0.00,,,0.00,,2013-01-24 08:42:00,
2013-01-24 01:52:00,14.0,8.0,30.05,SSE,151,11.0,19.0,76,0.00,,,0.00,,2013-01-24 08:52:00,
2013-01-24 02:03:00,14.0,8.0,30.04,SE,146,7.0,15.0,75,0.00,,,0.00,,2013-01-24 09:03:00,
2013-01-24 02:12:00,14.0,8.0,30.04,SE,146,7.0,15.0,75,0.00,,,0.00,,2013-01-24 09:12:00,
2013-01-24 02:23:00,14.0,8.0,30.04,SE,146,7.0,15.0,75,0.00,,,0.00,,2013-01-24 09:23:00,
2013-01-24 02:33:00,14.0,8.0,30.04,SE,146,7.0,15.0,75,0.00,,,0.00,,2013-01-24 09:33:00,
2013-01-24 04:33:00,15.0,9.0,29.98,SE,135,6.0,12.0,77,0.00,,,0.00,,2013-01-24 11:33:00,
2013-01-24 04:43:00,15.0,9.0,29.98,SE,135,6.0,12.0,77,0.00,,,0.00,,2013-01-24 11:43:00,
2013-01-24 04:53:00,15.0,9.0,29.98,SE,141,2.0,13.0,77,0.00,,,0.00,,2013-01-24 11:53:00,
2013-01-24 05:03:00,15.0,9.0,29.97,SSE,147,7.0,13.0,77,0.00,,,0.00,,2013-01-24 12:03:00,
2013-01-24 05:12:00,15.0,9.0,29.97,SSE,147,7.0,13.0,77,0.00,,,0.00,,2013-01-24 12:12:00,
2013-01-24 05:22:00,15.0,9.0,29.96,SSE,147,8.0,14.0,77,0.00,,,0.00,,2013-01-24 12:22:00,
2013-01-24 05:33:00,15.0,9.0,29.95,SE,133,9.0,15.0,77,0.00,,,0.00,,2013-01-24 12:33:00,
2013-01-24 05:43:00,15.0,9.0,29.95,SE,133,9.0,15.0,77,0.00,,,0.00,,2013-01-24 12:43:00,
2013-01-24 05:53:00,15.0,9.0,29.95,SE,133,9.0,15.0,77,0.00,,,0.00,,2013-01-24 12:53:00,
2013-01-24 06:03:00,15.0,9.0,29.95,SE,133,9.0,15.0,77,0.00,,,0.00,,2013-01-24 13:03:00,
2013-01-24 08:23:00,16.0,10.0,29.90,SSE,160,4.0,6.0,78,0.00,,,0.00,,2013-01-24 15:23:00,
2013-01-24 08:33:00,16.0,10.0,29.90,SSE,160,4.0,6.0,78,0.00,,,0.00,,2013-01-24 15:33:00,
2013-01-24 08:42:00,18.0,12.0,29.89,South,173,6.0,8.0,77,0.00,,,0.00,,2013-01-24 15:42:00,
2013-01-24 08:43:00,16.0,10.0,29.90,SSE,163,4.0,6.0,78,0.00,,,0.00,,2013-01-24 15:43:00,
2013-01-24 08:53:00,17.0,11.0,29.90,South,175,6.0,9.0,78,0.00,,,0.00,,2013-01-24 15:53:00,
2013-01-24 09:03:00,18.0,12.0,29.89,South,173,6.0,8.0,77,0.00,,,0.00,,2013-01-24 16:03:00,
2013-01-24 09:12:00,18.0,12.0,29.89,South,173,6.0,8.0,77,0.00,,,0.00,,2013-01-24 16:12:00,
2013-01-24 09:23:00,18.0,12.0,29.89,South,173,6.0,8.0,77,0.00,,,0.00,,2013-01-24 16:23:00,
2013-01-24 09:33:00,18.0,12.0,29.89,South,173,6.0,8.0,77,0.00,,,0.00,,2013-01-24 16:33:00,
2013-01-24 11:53:00,26.0,18.0,29.88,SSW,194,7.0,10.0,71,0.00,,,0.00,,2013-01-24 18:53:00,
2013-01-24 12:02:00,27.0,19.0,29.88,SSW,196,10.0,14.0,70,0.00,,,0.00,,2013-01-24 19:02:00,
2013-01-24 12:12:00,27.0,19.0,29.88,SSW,196,10.0,14.0,70,0.00,,,0.00,,2013-01-24 19:12:00,
2013-01-24 12:22:00,27.0,19.0,29.87,SSW,192,7.0,12.0,71,0.00,,,0.00,,2013-01-24 19:22:00,
2013-01-24 12:33:00,29.0,20.0,29.86,SSW,200,8.0,12.0,68,0.00,,,0.00,,2013-01-24 19:33:00,
2013-01-24 12:42:00,29.0,20.0,29.86,SSW,200,8.0,12.0,68,0.00,,,0.00,,2013-01-24 19:42:00,
2013-01-24 12:52:00,29.0,20.0,29.85,South,178,7.0,12.0,70,0.00,,,0.00,,2013-01-24 19:52:00,
2013-01-24 13:02:00,29.0,20.0,29.85,South,178,7.0,12.0,70,0.00,,,0.00,,2013-01-24 20:02:00,
2013-01-24 13:11:00,29.0,20.0,29.85,South,178,7.0,12.0,70,0.00,,,0.00,,2013-01-24 20:11:00,
2013-01-24 13:22:00,29.0,20.0,29.85,South,178,7.0,12.0,70,0.00,,,0.00,,2013-01-24 20:22:00,
2013-01-24 15:33:00,40.0,29.0,29.86,NW,304,19.0,26.0,64,0.00,,,0.00,,2013-01-24 22:33:00,
2013-01-24 15:42:00,40.0,29.0,29.86,NW,304,19.0,26.0,64,0.00,,,0.00,,2013-01-24 22:42:00,
2013-01-24 15:53:00,39.0,29.0,29.87,WNW,298,16.0,23.0,66,0.00,,,0.00,,2013-01-24 22:53:00,
2013-01-24 16:02:00,38.0,28.0,29.86,NW,305,18.0,24.0,67,0.00,,,0.00,,2013-01-24 23:02:00,
2013-01-24 16:12:00,38.0,28.0,29.86,NW,305,18.0,24.0,67,0.00,,,0.00,,2013-01-24 23:12:00,
2013-01-24 16:22:00,37.0,28.0,29.87,NW,312,12.0,19.0,70,0.00,,,0.00,,2013-01-24 23:22:00,
2013-01-24 16:32:00,37.0,28.0,29.87,NW,312,12.0,19.0,70,0.00,,,0.00,,2013-01-24 23:32:00,
2013-01-24 16:42:00,37.0,28.0,29.87,NW,312,12.0,19.0,70,0.00,,,0.00,,2013-01-24 23:42:00,
2013-01-24 16:52:00,37.0,28.0,29.87,NW,312,12.0,19.0,70,0.00,,,0.00,,2013-01-24 23:52:00,
2013-01-24 19:02:00,29.0,25.0,29.96,SSE,167,1.0,3.0,83,0.00,,,0.00,,2013-01-25 02:02:00,
2013-01-24 19:11:00,29.0,25.0,29.96,SSE,167,1.0,3.0,83,0.00,,,0.00,,2013-01-25 02:11:00,
2013-01-24 19:22:00,27.0,23.0,29.96,South,171,3.0,5.0,83,0.00,,,0.00,,2013-01-25 02:22:00,
2013-01-24 19:32:00,29.0,25.0,29.96,South,171,0.0,3.0,84,0.00,,,0.00,,2013-01-25 02:32:00,
2013-01-24 19:42:00,29.0,25.0,29.96,South,171,0.0,3.0,84,0.00,,,0.00,,2013-01-25 02:42:00,
2013-01-24 19:52:00,30.0,25.0,29.96,WSW,254,2.0,5.0,81,0.00,,,0.00,,2013-01-25 02:52:00,
2013-01-24 20:02:00,30.0,25.0,29.96,WSW,254,2.0,5.0,81,0.00,,,0.00,,2013-01-25 03:02:00,
2013-01-24 20:12:00,30.0,25.0,29.96,WSW,254,2.0,5.0,81,0.00,,,0.00,,2013-01-25 03:12:00,
2013-01-24 20:22:00,30.0,25.0,29.96,WSW,254,2.0,5.0,81,0.00,,,0.00,,2013-01-25 03:22:00,
2013-01-24 22:32:00,28.0,22.0,30.00,SSW,199,5.0,9.0,78,0.00,,,0.00,,2013-01-25 05:32:00,
2013-01-24 22:43:00,28.0,22.0,30.00,SSW,199,5.0,9.0,78,0.00,,,0.00,,2013-01-25 05:43:00,
2013-01-24 22:52:00,28.0,22.0,30.01,SSW,194,5.0,7.0,77,0.00,,,0.00,,2013-01-25 05:52:00,
2013-01-24 23:02:00,28.0,22.0,30.01,West,260,0.0,6.0,77,0.00,,,0.00,,2013-01-25 06:02:00,
2013-01-24 23:11:00,28.0,22.0,30.01,West,260,0.0,6.0,77,0.00,,,0.00,,2013-01-25 06:11:00,
2013-01-24 23:21:00,27.0,21.0,30.01,SSW,213,0.0,5.0,78,0.00,,,0.00,,2013-01-25 06:21:00,
2013-01-24 23:32:00,25.0,19.0,30.01,SSW,205,3.0,5.0,78,0.00,,,0.00,,2013-01-25 06:32:00,
2013-01-24 23:42:00,25.0,19.0,30.01,SSW,205,3.0,5.0,78,0.00,,,0.00,,2013-01-25 06:42:00,
2013-01-24 23:52:00,25.0,19.0,30.01,SSW,205,3.0,5.0,78,0.00,,,0.00,,2013-01-25 06:52:00,